Regional Weather Roundup
Issued by NWS Lake Charles, LA

Home | Current Version | Previous Version | Text Only | Print | Product List | Glossary On
Versions: 1 2 3 4 5 6 7 8 9 10 11 12 13 14 15 16 17 18 19 20 21 22 23 24 25 26 27 28 29 30 31 32 33 34 35 36 37 38 39 40 41 42 43 44 45 46 47 48 49 50
311
ASUS44 KLCH 231810
RWRLCH
REGIONAL WEATHER ROUNDUP
NATIONAL WEATHER SERVICE LAKE CHARLES LA
1200 PM CST TUE JAN 23 2018

Note: "fair" indicates few or no clouds below 12,000 feet with no
significant weather and/or obstructions to visibility.


ACROSS SOUTHEAST TEXAS

CITY           SKY/WX    TMP DP  RH WIND       PRES   REMARKS
BEAUMONT       FAIR      61  24  24 N13       30.27F
BEAUMONT CITY  FAIR      61  22  22 N10       30.28F
ORANGE         FAIR      58  26  29 N8        30.28F
JASPER         FAIR      53  32  44 N7        30.29F
$$

ACROSS CENTRAL LOUISIANA

CITY           SKY/WX    TMP DP  RH WIND       PRES   REMARKS
LEESVILLE      FAIR      53  29  38 NW9       30.25F
FULLERTON      FAIR      56  30  37 CALM      30.22F
ALEXANDRIA INT FAIR      53  31  42 W7        30.25F
ESLER FIELD    FAIR      56  30  37 MISG      30.24F
DERIDDER       FAIR      56  22  27 NW10G16   30.27F
OAKDALE        FAIR      59  24  26 N8        30.25F
OPELOUSAS      FAIR      59  31  35 N8        30.24F
$$

ACROSS SOUTHWEST AND SOUTH CENTRAL LOUISIANA

CITY           SKY/WX    TMP DP  RH WIND       PRES   REMARKS
SULPHUR        FAIR      60  23  24 N12G17    30.26F
LAKE CHARLES   FAIR      59  25  27 N10       30.25F
CHENNAULT INT  SUNNY     61  27  27 N9        30.26F
CAMERON PHI    CLEAR     57  23  26 N10       30.27S
DEQUINCY       FAIR      56  26  30 N6        30.26F
JENNINGS       FAIR      57  29  33 N10       30.25F
LAFAYETTE      FAIR      61  24  24 N9        30.23F
NEW IBERIA     FAIR      62  23  22 N8        30.23F
ABBEVILLE      FAIR      60  24  24 N9        30.23F
PATTERSON      FAIR      60  23  24 NW9       30.22F
SALT POINT       N/A     54  43  66 W8        30.21F
$$

SELECTED SITES ACROSS THE REGION

CITY           SKY/WX    TMP DP  RH WIND       PRES   REMARKS
HOUSTON BUSH   PTSUNNY   62  20  19 N14       30.28F
HOUSTON HOBBY  PTSUNNY   60  22  23 N10       30.28F
GALVESTON      FAIR      60  33  36 N13       30.29F
COLLEGE STAT   FAIR      59  20  22 N8        30.31F
CONROE         FAIR      57  27  31 N9        30.29F
HUNTSVILLE     FAIR      59  24  26 VRB7      30.29F
LUFKIN         FAIR      57  24  28 N6        30.28F
SHREVEPORT     FAIR      56  20  24 NW9G17    30.25F
MONROE         FAIR      55  27  34 W8G17     30.23F
NATCHEZ MS     FAIR      53  31  42 N6        30.22F
BATON ROUGE    FAIR      62  26  25 N10G17    30.21F
N.O. INTL ARPT PTSUNNY   60  29  30 NW12      30.20F
SLIDELL        FAIR      63  27  25 NW7G16    30.17F
$$

MARINE REPORTS

STATION/POSITION TIME  SKY/WX   TEMP    WIND        PRES    VSBY
                                AIR SEA DIR/SP/G
                 (UTC)          (F)     (DEG/KT/KT) (MB)    (MI)
BUOY 30 S HIGH I 1650            52 53  340/  6/  8 1026.0
WVE H/P(F/S)=  1

SEA RIM ST PARK  1800            58     350/  8/ 11 1025.3F
PORT ARTHUR      1748               50   10/  6/ 11 1025.1F
SABINE PASS N    1748               54  340/  5/  9 1026.5F
TEXAS POINT      NOT AVBL
CALCASIEU PASS   1748               52   20/  8/  9 1023.7F
LK CHARLES BEACH 1748               55              1023.9F
MARSH ISLAND     1700            52                   N/A
FRESH WATER LOCK 1748            57 51  350/  9/ 12 1023.7F
AMERADA PASS     1742            54 46  270/  5/  8 1023.3F
$$




USA.gov is the U.S. government's official web portal to all federal, state and local government web resources and services.